Time,TemperatureF,DewpointF,PressureIn,WindDirection,WindDirectionDegrees,WindSpeedMPH,WindSpeedGustMPH,Humidity,HourlyPrecipIn,Conditions,Clouds,dailyrainin,SolarRadiationWatts/m^2,SoftwareType,DateUTC
2013-07-31 00:02:00,86.0,68.0,29.85,SE,146,0.0,0.0,55,0.00,,,0.00,0.000000,,2013-07-31 05:02:00,
2013-07-31 00:11:00,86.0,68.0,29.97,SE,146,0.0,1.0,56,0.00,,,0.00,0.000000,,2013-07-31 05:11:00,
2013-07-31 00:22:00,85.0,68.0,29.98,SE,146,0.0,1.0,56,0.00,,,0.00,0.000000,,2013-07-31 05:22:00,
2013-07-31 00:32:00,85.0,68.0,29.98,SE,146,0.0,0.0,57,0.00,,,0.00,0.000000,,2013-07-31 05:32:00,
2013-07-31 00:42:00,85.0,68.0,29.98,SSE,148,0.0,3.0,57,0.00,,,0.00,0.000000,,2013-07-31 05:42:00,
2013-07-31 00:52:00,84.0,67.0,29.98,SE,139,1.0,2.0,57,0.00,,,0.00,0.000000,,2013-07-31 05:52:00,
2013-07-31 01:02:00,84.0,67.0,29.98,SE,133,1.0,3.0,57,0.00,,,0.00,0.000000,,2013-07-31 06:02:00,
2013-07-31 01:32:00,84.0,67.0,29.99,SE,140,1.0,3.0,57,0.00,,,0.00,0.000000,,2013-07-31 06:32:00,
2013-07-31 02:02:00,84.0,67.0,30.00,SSE,159,0.0,6.0,57,0.00,,,0.00,0.000000,,2013-07-31 07:02:00,
2013-07-31 02:12:00,84.0,67.0,30.00,SSW,195,0.0,2.0,57,0.00,,,0.00,0.000000,,2013-07-31 07:12:00,
2013-07-31 02:32:00,83.0,66.0,29.99,SE,145,0.0,3.0,57,0.00,,,0.00,0.000000,,2013-07-31 07:32:00,
2013-07-31 02:43:00,83.0,66.0,29.99,ESE,117,0.0,3.0,57,0.00,,,0.00,0.000000,,2013-07-31 07:43:00,
2013-07-31 03:02:00,83.0,67.0,29.97,SE,130,1.0,6.0,58,0.00,,,0.00,0.000000,,2013-07-31 08:02:00,
2013-07-31 03:12:00,82.0,66.0,29.98,SE,141,0.0,6.0,59,0.00,,,0.00,0.000000,,2013-07-31 08:12:00,
2013-07-31 03:22:00,82.0,66.0,29.99,SE,141,0.0,2.0,59,0.00,,,0.00,0.000000,,2013-07-31 08:22:00,
2013-07-31 03:32:00,82.0,67.0,29.99,SE,141,0.0,1.0,61,0.00,,,0.00,0.000000,,2013-07-31 08:32:00,
2013-07-31 03:42:00,81.0,67.0,29.96,SE,141,0.0,1.0,62,0.00,,,0.00,0.000000,,2013-07-31 08:42:00,
2013-07-31 04:02:00,81.0,67.0,29.31,South,189,0.0,2.0,62,0.00,,,0.00,0.000000,,2013-07-31 09:02:00,
2013-07-31 04:12:00,81.0,67.0,29.43,SE,141,0.0,3.0,62,0.00,,,0.00,0.000000,,2013-07-31 09:12:00,
2013-07-31 04:32:00,81.0,67.0,29.87,SSW,197,0.0,7.0,63,0.00,,,0.00,0.000000,,2013-07-31 09:32:00,
2013-07-31 04:43:00,81.0,67.0,29.48,SE,130,0.0,3.0,63,0.00,,,0.00,0.000000,,2013-07-31 09:43:00,
2013-07-31 05:02:00,80.0,67.0,27.98,SE,143,1.0,3.0,65,0.00,,,0.00,0.000000,,2013-07-31 10:02:00,
2013-07-31 05:12:00,80.0,67.0,27.98,SE,135,0.0,3.0,65,0.00,,,0.00,0.000000,,2013-07-31 10:12:00,
2013-07-31 05:32:00,80.0,68.0,28.43,SSE,167,0.0,2.0,66,0.00,,,0.00,0.000000,,2013-07-31 10:32:00,
2013-07-31 05:44:00,80.0,68.0,29.94,SE,126,0.0,3.0,67,0.00,,,0.00,0.000000,,2013-07-31 10:44:00,
2013-07-31 06:03:00,80.0,68.0,30.01,ESE,104,0.0,3.0,68,0.00,,,0.00,0.000000,,2013-07-31 11:03:00,
2013-07-31 06:12:00,80.0,69.0,30.01,SE,135,0.0,2.0,69,0.00,,,0.00,0.000000,,2013-07-31 11:12:00,
2013-07-31 06:22:00,80.0,69.0,30.02,SE,131,0.0,5.0,70,0.00,,,0.00,0.000000,,2013-07-31 11:22:00,
2013-07-31 06:33:00,79.0,69.0,30.02,SE,146,0.0,3.0,71,0.00,,,0.00,0.000000,,2013-07-31 11:33:00,
2013-07-31 06:43:00,79.0,69.0,30.03,SSE,148,0.0,1.0,71,0.00,,,0.00,0.000000,,2013-07-31 11:43:00,
2013-07-31 07:02:00,79.0,70.0,30.03,SSE,148,0.0,1.0,73,0.00,,,0.00,1.000000,,2013-07-31 12:02:00,
2013-07-31 07:12:00,79.0,70.0,30.03,SE,146,0.0,1.0,74,0.00,,,0.00,1.000000,,2013-07-31 12:12:00,
2013-07-31 07:32:00,78.0,69.0,30.03,SE,138,0.0,1.0,75,0.00,,,0.00,3.000000,,2013-07-31 12:32:00,
2013-07-31 07:43:00,79.0,70.0,30.04,SE,138,0.0,1.0,75,0.00,,,0.00,4.000000,,2013-07-31 12:43:00,
2013-07-31 07:52:00,79.0,70.0,30.04,SE,138,0.0,1.0,75,0.00,,,0.00,4.000000,,2013-07-31 12:52:00,
2013-07-31 08:02:00,79.0,71.0,30.04,South,188,0.0,3.0,76,0.00,,,0.00,6.000000,,2013-07-31 13:02:00,
2013-07-31 08:12:00,79.0,71.0,29.85,SSW,200,0.0,3.0,76,0.00,,,0.00,6.000000,,2013-07-31 13:12:00,
2013-07-31 08:43:00,79.0,71.0,30.03,SSW,193,0.0,2.0,77,0.00,,,0.00,8.000000,,2013-07-31 13:43:00,
2013-07-31 09:02:00,78.0,71.0,29.19,SE,139,0.0,5.0,80,0.02,,,0.02,9.000000,,2013-07-31 14:02:00,
2013-07-31 09:12:00,78.0,71.0,29.85,SE,138,0.0,5.0,80,0.02,,,0.02,8.000000,,2013-07-31 14:12:00,
2013-07-31 09:22:00,78.0,71.0,29.90,SE,139,0.0,3.0,80,0.02,,,0.02,11.000000,,2013-07-31 14:22:00,
2013-07-31 09:34:00,79.0,72.0,29.90,SSW,197,0.0,3.0,78,0.02,,,0.02,13.000000,,2013-07-31 14:34:00,
2013-07-31 09:43:00,79.0,71.0,29.90,SE,141,0.0,2.0,77,0.01,,,0.02,15.000000,,2013-07-31 14:43:00,
2013-07-31 09:53:00,80.0,72.0,29.41,West,264,0.0,3.0,76,0.00,,,0.02,16.000000,,2013-07-31 14:53:00,
2013-07-31 10:02:00,80.0,71.0,29.19,SW,233,0.0,3.0,75,0.00,,,0.02,15.000000,,2013-07-31 15:02:00,
2013-07-31 10:33:00,83.0,73.0,29.19,South,188,1.0,7.0,71,0.00,,,0.02,14.000000,,2013-07-31 15:33:00,
2013-07-31 10:43:00,83.0,72.0,29.19,WSW,257,1.0,5.0,70,0.00,,,0.02,14.000000,,2013-07-31 15:43:00,
2013-07-31 10:52:00,84.0,73.0,29.52,West,280,0.0,5.0,69,0.00,,,0.02,16.000000,,2013-07-31 15:52:00,
2013-07-31 11:02:00,85.0,72.0,29.52,South,176,1.0,6.0,66,0.00,,,0.02,13.000000,,2013-07-31 16:02:00,
2013-07-31 11:12:00,86.0,71.0,29.52,South,187,1.0,6.0,62,0.00,,,0.02,72.000000,,2013-07-31 16:12:00,
2013-07-31 11:33:00,89.0,72.0,29.52,SSW,194,1.0,7.0,57,0.00,,,0.02,78.000000,,2013-07-31 16:33:00,
2013-07-31 11:44:00,90.0,72.0,29.44,South,173,2.0,10.0,55,0.00,,,0.02,80.000000,,2013-07-31 16:44:00,
2013-07-31 12:02:00,92.0,71.0,29.33,SW,216,1.0,12.0,51,0.00,,,0.02,84.000000,,2013-07-31 17:02:00,
2013-07-31 12:12:00,93.0,71.0,29.33,WSW,257,3.0,12.0,49,0.00,,,0.02,84.000000,,2013-07-31 17:12:00,
2013-07-31 12:22:00,93.0,72.0,29.33,NNW,340,1.0,12.0,50,0.00,,,0.02,87.000000,,2013-07-31 17:22:00,
2013-07-31 12:33:00,94.0,71.0,29.33,South,170,1.0,5.0,48,0.00,,,0.02,89.000000,,2013-07-31 17:33:00,
2013-07-31 12:43:00,94.0,70.0,29.33,WSW,257,2.0,12.0,46,0.00,,,0.02,91.000000,,2013-07-31 17:43:00,
2013-07-31 12:53:00,94.0,70.0,29.33,WSW,257,2.0,12.0,46,0.00,,,0.02,91.000000,,2013-07-31 17:53:00,
2013-07-31 13:02:00,94.0,70.0,29.33,WSW,257,2.0,12.0,46,0.00,,,0.02,91.000000,,2013-07-31 18:02:00,
2013-07-31 13:12:00,96.0,71.0,29.46,SW,228,2.0,13.0,44,0.00,,,0.02,90.000000,,2013-07-31 18:12:00,
2013-07-31 13:32:00,97.0,71.0,29.38,West,276,2.0,10.0,43,0.00,,,0.02,90.000000,,2013-07-31 18:32:00,
2013-07-31 14:02:00,98.0,72.0,29.67,West,265,5.0,10.0,43,0.00,,,0.02,92.000000,,2013-07-31 19:02:00,
2013-07-31 14:32:00,97.0,71.0,28.22,West,263,2.0,10.0,44,0.00,,,0.02,90.000000,,2013-07-31 19:32:00,
2013-07-31 14:43:00,98.0,73.0,28.22,WNW,283,1.0,6.0,45,0.00,,,0.02,87.000000,,2013-07-31 19:43:00,
2013-07-31 15:02:00,98.0,73.0,29.36,West,268,3.0,8.0,45,0.00,,,0.02,81.000000,,2013-07-31 20:02:00,
2013-07-31 15:32:00,99.0,73.0,29.13,West,263,2.0,6.0,44,0.00,,,0.02,82.000000,,2013-07-31 20:32:00,
2013-07-31 15:42:00,99.0,73.0,29.13,WNW,282,1.0,5.0,44,0.00,,,0.02,52.000000,,2013-07-31 20:42:00,
2013-07-31 15:52:00,99.0,73.0,29.90,West,275,2.0,7.0,44,0.00,,,0.02,30.000000,,2013-07-31 20:52:00,
2013-07-31 16:02:00,99.0,73.0,29.37,West,273,2.0,8.0,43,0.00,,,0.02,37.000000,,2013-07-31 21:02:00,
2013-07-31 16:12:00,99.0,73.0,27.99,WNW,302,1.0,6.0,43,0.00,,,0.02,15.000000,,2013-07-31 21:12:00,
2013-07-31 16:32:00,99.0,74.0,27.99,WNW,299,0.0,3.0,45,0.00,,,0.02,12.000000,,2013-07-31 21:32:00,
2013-07-31 16:43:00,99.0,74.0,27.99,West,279,0.0,3.0,45,0.00,,,0.02,12.000000,,2013-07-31 21:43:00,
2013-07-31 17:12:00,100.0,73.0,29.82,SSE,159,1.0,5.0,42,0.00,,,0.02,11.000000,,2013-07-31 22:12:00,
2013-07-31 17:33:00,100.0,74.0,29.89,WNW,292,1.0,5.0,44,0.00,,,0.02,45.000000,,2013-07-31 22:33:00,
2013-07-31 17:42:00,100.0,73.0,29.89,WNW,292,0.0,1.0,43,0.00,,,0.02,30.000000,,2013-07-31 22:42:00,
2013-07-31 18:02:00,101.0,74.0,29.91,WNW,293,1.0,3.0,43,0.00,,,0.02,40.000000,,2013-07-31 23:02:00,
2013-07-31 19:12:00,99.0,74.0,29.86,NW,321,0.0,1.0,45,0.00,,,0.02,17.000000,,2013-08-01 00:12:00,
2013-07-31 19:32:00,98.0,74.0,29.83,SSW,198,0.0,2.0,46,0.00,,,0.02,4.000000,,2013-08-01 00:32:00,
2013-07-31 19:43:00,98.0,73.0,29.86,SE,129,0.0,3.0,45,0.00,,,0.02,1.000000,,2013-08-01 00:43:00,
2013-07-31 19:52:00,97.0,73.0,29.62,SE,129,0.0,0.0,46,0.00,,,0.02,2.000000,,2013-08-01 00:52:00,
2013-07-31 20:02:00,97.0,73.0,29.62,SE,129,0.0,0.0,46,0.00,,,0.02,5.000000,,2013-08-01 01:02:00,
2013-07-31 20:12:00,96.0,72.0,29.90,SE,129,0.0,0.0,46,0.00,,,0.02,2.000000,,2013-08-01 01:12:00,
2013-07-31 20:22:00,96.0,72.0,29.83,SE,129,0.0,0.0,46,0.00,,,0.02,2.000000,,2013-08-01 01:22:00,
2013-07-31 20:33:00,96.0,72.0,29.80,SE,129,0.0,0.0,47,0.00,,,0.02,1.000000,,2013-08-01 01:33:00,
2013-07-31 20:42:00,95.0,72.0,29.89,SE,129,0.0,0.0,47,0.00,,,0.02,0.000000,,2013-08-01 01:42:00,
2013-07-31 21:02:00,95.0,72.0,29.91,SE,129,0.0,0.0,48,0.00,,,0.02,0.000000,,2013-08-01 02:02:00,
2013-07-31 21:12:00,94.0,72.0,29.83,SE,129,0.0,0.0,50,0.00,,,0.02,0.000000,,2013-08-01 02:12:00,
2013-07-31 21:22:00,93.0,73.0,29.93,SE,129,0.0,0.0,52,0.00,,,0.02,0.000000,,2013-08-01 02:22:00,
2013-07-31 21:32:00,93.0,73.0,29.75,SE,129,0.0,0.0,53,0.00,,,0.02,0.000000,,2013-08-01 02:32:00,
2013-07-31 21:43:00,92.0,73.0,29.75,SE,129,0.0,0.0,54,0.00,,,0.02,0.000000,,2013-08-01 02:43:00,
2013-07-31 21:52:00,92.0,74.0,29.75,SE,129,0.0,0.0,56,0.00,,,0.02,0.000000,,2013-08-01 02:52:00,
2013-07-31 22:02:00,91.0,73.0,29.94,SE,129,0.0,0.0,56,0.00,,,0.02,0.000000,,2013-08-01 03:02:00,
2013-07-31 22:12:00,91.0,73.0,29.94,SE,129,0.0,0.0,55,0.00,,,0.02,0.000000,,2013-08-01 03:12:00,
2013-07-31 22:22:00,90.0,71.0,29.93,SE,129,0.0,1.0,54,0.00,,,0.02,0.000000,,2013-08-01 03:22:00,
2013-07-31 22:32:00,90.0,71.0,29.58,SE,129,0.0,0.0,54,0.00,,,0.02,0.000000,,2013-08-01 03:32:00,
2013-07-31 22:43:00,90.0,71.0,29.94,SE,129,0.0,0.0,54,0.00,,,0.02,0.000000,,2013-08-01 03:43:00,
2013-07-31 23:02:00,89.0,71.0,29.88,SE,129,0.0,0.0,55,0.00,,,0.02,0.000000,,2013-08-01 04:02:00,
2013-07-31 23:12:00,89.0,71.0,29.95,SE,129,0.0,0.0,55,0.00,,,0.02,0.000000,,2013-08-01 04:12:00,
2013-07-31 23:33:00,88.0,71.0,29.95,SE,129,0.0,1.0,57,0.00,,,0.02,0.000000,,2013-08-01 04:33:00,
2013-07-31 23:43:00,88.0,71.0,29.96,SE,129,0.0,1.0,57,0.00,,,0.02,0.000000,,2013-08-01 04:43:00,